Regional Weather Roundup
Issued by NWS

Home | Current Version | Previous Version | Text Only | Print | Product List | Glossary On
Versions: 1 2 3 4 5 6 7 8 9 10 11 12 13 14 15 16 17 18 19 20 21 22 23 24 25 26 27
000
ASUS42 KTBW 300716
RWRFL
FLORIDA REGIONAL WEATHER ROUNDUP
NATIONAL WEATHER SERVICE TAMPA BAY RUSKIN FL
300 AM EDT SAT JUL 30 2016

NOTE: "FAIR" INDICATES FEW OR NO CLOUDS BELOW 12,000 FEET WITH NO
SIGNIFICANT WEATHER AND/OR OBSTRUCTIONS TO VISIBILITY.

FLZ001>010-012>015-112-114-115-300800-
PANHANDLE FLORIDA

CITY           SKY/WX    TMP DP  RH WIND       PRES   REMARKS
PENSACOLA      CLEAR     80  76  87 NW5       30.00F
PENSACOLA NAS  CLEAR     80  75  84 CALM      30.00F
MILTON NAS       N/A    N/A N/A N/A MISG      30.01F
CRESTVIEW      CLEAR     73  71  93 CALM      30.02F
DUKE FIELD     FAIR      76  74  94 W1        30.00F
VALPARAISO     CLEAR     80  75  86 W1        30.00F
MARY ESTHER    PTCLDY    78  74  88 CALM      29.99F
TRI COUNTY     FAIR      75  74  96 CALM      30.01F FOG
PANAMA CITY    FAIR      77  75  93 CALM      30.00F
TYNDALL AFB    PTCLDY    84  76  76 W7        30.01F
APALACHICOLA   CLEAR     79  76  90 NW3       30.00F

STATION/POSITION SKY/WX   TEMP    WIND        PRES    WAVE   SWELL
                          AIR SEA DIR/SP/G            HT/PER HT/PER
                          (F)     (DEG/KT/KT) (MB)    (FT/S) (FT/S)
30.1N   87.6W              85 88  220/ 10/ 12 1016.5    2/ 5   2/ 5
29.2N   88.2W              85 88  200/ 10/ 12 1016.1F
28.8N   86.0W              85 87  240/  8/  8 1017.3    1/ 5   2/ 5
PANAMA CITY BEAC           85 89  240/ 10/ 12 1016.8F
TOWER C                    85     270/ 10/ 12 1017.3F
28.5N   84.5W              86 90  280/  4/  6 1016.9    1/ 4

$$
FLZ011-016>038-118-127-128-134-139-239-300800-
NORTH FLORIDA

CITY           SKY/WX    TMP DP  RH WIND       PRES   REMARKS
MARIANNA       CLEAR     77  76  96 CALM      30.00F
TALLAHASSEE    CLEAR     79  76  90 CALM      30.00F
PERRY          CLEAR     77  75  92 CALM      30.02S
LIVE OAK         N/A     79  79 100 CALM      30.03S
CROSS CITY       N/A     76  72  87 CALM      30.01F
LAKE CITY      FAIR      77  73  88 SW3       30.02S
GAINESVILLE    CLOUDY    76  73  91 CALM      30.03S
WILLISTON      FAIR      75  75 100 CALM      30.03F
MAYPORT NAS    CLEAR     81  75  82 SW9       30.01S
JACKSONVILLE   PTCLDY    77  74  90 SW3       30.00S
JAX NAS        PTCLDY    82  74  76 S6        30.02S
JAX CECIL      CLEAR     75  75 100 CALM      30.01F
FERNANDINA BEA FAIR      81  75  83 SW6       29.99F
ST AUGUSTINE   CLEAR     79  73  82 SW6       30.02F
PALM COAST     FAIR      75  75 100 CALM      30.02S

STATION/POSITION SKY/WX   TEMP    WIND        PRES    WAVE   SWELL
                          AIR SEA DIR/SP/G            HT/PER HT/PER
                          (F)     (DEG/KT/KT) (MB)    (FT/S) (FT/S)
SHELL POINT                83     270/  7/ 10 1015.2
KEATON BEACH               86     290/  8/  9 1016.0F
CEDAR KEY                  86     280/  5/  7 1017.1F
FERNANDINA                 83 89  230/  4/  8 1016.0F
30.7N   81.3W                 85                N/A     2/ 4
MAYPORT                    83 88  230/  9/ 10 1016.4F
31.4N   80.9W              86 87  200/ 16/ 19 1014.8    4/ 5
ST AUGUSTINE               79 85  230/  5/  7 1017.6F

$$
FLZ040-043>046-052-053-057-058-063-144-300800-
INTERIOR CENTRAL FLORIDA

CITY           SKY/WX    TMP DP  RH WIND       PRES   REMARKS
OCALA          PTCLDY    75  72  88 CALM      30.03F
THE VILLAGES     N/A     77  77 100 CALM      29.92F
LEESBURG       PTCLDY    79  75  87 CALM      30.03F
SANFORD        CLEAR     77  73  87 SE3       30.02F
ORLANDO EXEC   CLEAR     76  74  93 SE3       30.02F
ORLANDO INTL   MOCLDY    76  74  93 CALM      30.03F
KISSIMMEE      CLEAR     78  76  93 CALM      30.04S
WINTER HAVEN   PTCLDY    79  75  87 CALM      30.04F
LAKELAND       PTCLDY    77  75  94 CALM      30.03F
BARTOW         FAIR      75 N/A N/A CALM      30.03F
OKEECHOBEE     CLEAR     73  72  94 CALM      30.04S

$$
FLZ041-047-054-059-064-141-147-300800-
EAST CENTRAL FLORIDA

CITY           SKY/WX    TMP DP  RH WIND       PRES   REMARKS
DAYTONA BEACH  CLEAR     75  75 100 CALM      30.02F
JFK SPACE CTR  CLEAR     74  71  91 S2        30.01F
CAPE CANAVERAL CLEAR     76  72  87 CALM      30.02S
PATRICK AFB    CLEAR     81  73  76 W5        30.02F
MELBOURNE      CLEAR     75  71  87 CALM      30.03F
VERO BEACH     CLEAR     75  73  93 CALM      30.03F
FT PIERCE      CLEAR     74  73  97 W3        30.03F
STUART         PTCLDY    81  75  83 CALM      30.04F

STATION/POSITION SKY/WX   TEMP    WIND        PRES    WAVE   SWELL
                          AIR SEA DIR/SP/G            HT/PER HT/PER
                          (F)     (DEG/KT/KT) (MB)    (FT/S) (FT/S)
28.5N   80.2W              82 85  100/  2/  2 1017.3F
28.9N   78.5W              85 87  230/  4/  6 1016.8F
TRIDENT PIER               79 85   40/  2/  2 1017.2R
28.4N   80.5W                 83                N/A     1/ 8
27.5N   80.2W                 83                N/A     1

$$
FLZ050-056-061-142-242-148-248-149-249-151-251-155-255-
160-260-300800-
WEST CENTRAL FLORIDA

CITY           SKY/WX    TMP DP  RH WIND       PRES   REMARKS
CRYSTAL RIVER  FAIR      75  73  94 CALM      30.02F
INVERNESS      FAIR      75  73  94 CALM      30.03F
BROOKSVILLE    PTCLDY    75  74  96 CALM      30.03F
ZEPHYRHILLS    FAIR      54  54 100 CALM      30.03S
CLEARWATER AIR FAIR      79  77  94 CALM      30.01F
ST PETE CLEARW MOCLDY    80  74  81 S3        30.01F
TAMPA INTL     MOCLDY    83  77  82 CALM      30.02F
TAMPA EXEC     MOCLDY    79  77  94 CALM      30.02F FOG
PLANT CITY     MOCLDY    79  79 100 CALM      30.04F
MACDILL AFB    PTCLDY    78  78 100 SW1       30.01F
PETER O KNIGHT MOCLDY    84  79  84 CALM      30.02F HX  96
ST PETERSBURG  CLOUDY    83  77  82 SW5       30.00F
SARASOTA       CLOUDY    82  76  81 CALM      30.01F
VENICE         NOT AVBL

STATION/POSITION SKY/WX   TEMP    WIND        PRES    WAVE   SWELL
                          AIR SEA DIR/SP/G            HT/PER HT/PER
                          (F)     (DEG/KT/KT) (MB)    (FT/S) (FT/S)
27.3N   84.2W                 88                N/A     1/ 4
CLEARWATER BEACH           85 89  230/  3/  4 1017.1F
MIDDLE TAMPA BAY                   70/  4/  5 1017.4F
VENICE                     82 90   70/  3/  3 1016.4F

$$
FLZ066-069-070-075>078-162-262-165-265-300800-
SOUTHWEST FLORIDA AND KEYS

CITY           SKY/WX    TMP DP  RH WIND       PRES   REMARKS
PUNTA GORDA    CLEAR     79  77  94 CALM      30.04F
FT MYERS       CLEAR     78  77  96 CALM      30.02F
SOUTHWEST INTL PTCLDY    79  75  87 CALM      30.03S
NAPLES         CLEAR     79  75  87 CALM      30.02F
MARCO ISLAND   CLEAR     79  73  83 CALM      30.03S
MARATHON       PTCLDY    83  77  82 CALM      30.02F
KEY WEST NAS   CLOUDY    82  76  81 SE6       30.01F
KEY WEST INTL  CLEAR     84  77  79 E6        30.02F

STATION/POSITION SKY/WX   TEMP    WIND        PRES    WAVE   SWELL
                          AIR SEA DIR/SP/G            HT/PER HT/PER
                          (F)     (DEG/KT/KT) (MB)    (FT/S) (FT/S)
NAPLES                        89              1016.9F
26.0N   85.6W              85 86   CALM  /  2 1017.2    1/ 7   2/ 7
DRY TORTUGAS               84     130/  3/  4 1016.8F
SAND KEY                   84     120/  7/  8 1016.9F
LONG KEY                   84 89  130/  5/  6 1017.4F

$$
FLZ067-068-071>074-168-172>174-300800-
SOUTHEAST FLORIDA

CITY           SKY/WX    TMP DP  RH WIND       PRES   REMARKS
W PALM BEACH   CLOUDY    81  74  79 CALM      30.04F
FT LAUDER-EXEC PTCLDY    79  73  82 CALM      30.03F
FT LAUDERDALE  PTCLDY    81  74  79 CALM      30.03F
POMPANO BEACH  PTCLDY    81  74  79 N3        30.03F
PEMBROKE PINES PTCLDY    81  74  79 CALM      30.05F
OPA LOCKA      PTCLDY    80  74  81 CALM      30.04F
MIAMI          PTCLDY    81  71  71 CALM      30.04F
WEST KENDALL   PTCLDY    80  71  74 CALM      30.03F
HOMESTEAD      PTCLDY    80  75  85 CALM      30.03F

STATION/POSITION SKY/WX   TEMP    WIND        PRES    WAVE   SWELL
                          AIR SEA DIR/SP/G            HT/PER HT/PER
                          (F)     (DEG/KT/KT) (MB)    (FT/S) (FT/S)
PORT EVERGLADES            84      50/  3/  4 1017.3S
VIRGINIA KEY               84 91  360/  2/  2 1017.7S
LAKE WORTH                        310/  2/  4   N/A
FOWEY ROCKS                84 86  130/  3/  3 1018.0S
SETTLEMENT POINT           84     160/  5/  5 1017.8F

$$





USA.gov is the U.S. government's official web portal to all federal, state and local government web resources and services.